Shelton, WA
on Friday, December 21, 2012

Friday
Previous Day Next Day
Daily Summary
 ActualAverage (KOLM)Record (KOLM)
Temperature
Mean Temperature °F 38°F  
Max Temperature 41°F 44°F 57°F (1980)
Min Temperature 26°F 32°F 0°F (1990)
Degree Days
Heating Degree Days 32 27  
Month to date heating degree days 556  
Since 1 July heating degree days 2001  
Cooling Degree Days 0 0  
Month to date cooling degree days 0  
Year to date cooling degree days 106  
Moisture
Dew Point 32°F   
Average Humidity 97    
Maximum Humidity 100    
Minimum Humidity 86    
Precipitation
Precipitation 0.05 in 0.23 in 1.69 in (1955)
Month to date precipitation 5.16  
Year to date precipitation 47.70  
Wind
Wind Speed 2 mph   
Max Wind Speed 7 mph   
Max Gust Speed mph   
Visibility 8 miles   
Events Rain   

Key: T is trace of precipitation, MM is missing value
Source: NWS Daily Summary
Time(PST)TemperatureDew PointHumidity Pressure Visibility Wind DirectionWind SpeedGust SpeedPrecipitationEvents Conditions
12:18 AM 30.2°F 28.4°F 93% 29.78 in 10.0 miles Calm Calm - N/A   Partly Cloudy
12:53 AM 30.0°F 28.9°F 96% 29.79 in 10.0 miles North 5.8 mph - N/A   Partly Cloudy
1:53 AM 30.9°F 30.9°F 100% 29.78 in 10.0 miles NNE 6.9 mph - N/A   Partly Cloudy
2:53 AM 28.0°F 28.0°F 100% 29.78 in 10.0 miles Calm Calm - N/A   Clear
3:18 AM 28.4°F 28.4°F 100% 29.75 in 2.5 miles Calm Calm - N/A   Partly Cloudy
3:27 AM 28.4°F 26.6°F 93% 29.75 in 1.2 miles Calm Calm - N/A   Scattered Clouds
3:36 AM 26.6°F 26.6°F 100% 29.75 in 1.5 miles Calm Calm - N/A   Mostly Cloudy
3:46 AM 28.4°F 26.6°F 93% 29.75 in 3.0 miles Calm Calm - N/A   Mostly Cloudy
3:50 AM 26.6°F 26.6°F 100% 29.75 in 2.5 miles Calm Calm - N/A   Scattered Clouds
3:53 AM 27.0°F 26.1°F 96% 29.77 in 2.0 miles Calm Calm - N/A   Mostly Cloudy
4:01 AM 28.4°F 26.6°F 93% 29.74 in 1.8 miles Calm Calm - N/A   Mostly Cloudy
4:11 AM 28.4°F 26.6°F 93% 29.74 in 2.0 miles Calm Calm - N/A   Mostly Cloudy
4:18 AM 28.4°F 26.6°F 93% 29.73 in 1.5 miles Calm Calm - N/A   Mostly Cloudy
4:24 AM 28.4°F 28.4°F 100% 29.73 in 3.0 miles Calm Calm - N/A   Mostly Cloudy
4:33 AM 28.4°F 28.4°F 100% 29.73 in 10.0 miles Calm Calm - N/A   Mostly Cloudy
4:53 AM 28.9°F 28.0°F 96% 29.74 in 10.0 miles Calm Calm - N/A   Mostly Cloudy
5:53 AM 30.0°F 28.9°F 96% 29.73 in 10.0 miles Calm Calm - N/A   Overcast
6:51 AM 30.2°F 30.2°F 100% 29.71 in 10.0 miles North 4.6 mph - 0.00 in Rain Light Freezing Rain
6:53 AM 30.9°F 30.0°F 96% 29.73 in 10.0 miles North 4.6 mph - 0.00 in Rain Light Freezing Rain
7:51 AM 33.8°F 32.0°F 93% 29.70 in 10.0 miles North 4.6 mph - 0.01 in   Overcast
7:53 AM 33.1°F 32.0°F 96% 29.72 in 10.0 miles North 4.6 mph - 0.01 in   Overcast
8:37 AM 33.8°F 33.8°F 100% 29.72 in 10.0 miles Calm Calm - 0.01 in Rain Light Rain
8:51 AM 33.8°F 32.0°F 93% 29.71 in 10.0 miles North 5.8 mph - 0.02 in Rain Light Rain
8:53 AM 33.1°F 32.0°F 96% 29.73 in 10.0 miles North 4.6 mph - 0.02 in Rain Light Rain
9:53 AM 34.0°F 33.1°F 96% 29.75 in 10.0 miles Calm Calm - 0.00 in   Overcast
10:53 AM 35.1°F 34.0°F 96% 29.75 in 10.0 miles NNE 3.5 mph - N/A   Scattered Clouds
11:13 AM 35.6°F 35.6°F 100% 29.72 in 10.0 miles North 4.6 mph - N/A   Mostly Cloudy
11:53 AM 37.9°F 37.0°F 97% 29.75 in 10.0 miles NW 3.5 mph - N/A   Mostly Cloudy
12:53 PM 39.9°F 37.0°F 89% 29.74 in 10.0 miles North 4.6 mph - N/A   Scattered Clouds
1:53 PM 39.9°F 37.9°F 93% 29.73 in 10.0 miles NNW 3.5 mph - N/A   Overcast
2:53 PM 41.0°F 37.0°F 86% 29.73 in 10.0 miles NNW 5.8 mph - N/A   Clear
3:53 PM 37.9°F 37.0°F 97% 29.73 in 10.0 miles Calm Calm - N/A   Clear
4:53 PM 36.0°F 36.0°F 100% 29.72 in 10.0 miles North 3.5 mph - N/A   Partly Cloudy
5:53 PM 37.0°F 36.0°F 96% 29.70 in 10.0 miles North 3.5 mph - N/A   Mostly Cloudy
6:53 PM 36.0°F 35.1°F 97% 29.69 in 10.0 miles Calm Calm - 0.00 in Rain Light Rain
7:53 PM 36.0°F 35.1°F 97% 29.68 in 10.0 miles Calm Calm - 0.00 in   Overcast
8:53 PM 36.0°F 35.1°F 97% 29.68 in 10.0 miles NNW 4.6 mph - 0.00 in Rain Light Rain
9:53 PM 35.1°F 35.1°F 100% 29.68 in 10.0 miles Calm Calm - 0.00 in Rain Light Rain
10:01 PM 35.6°F 35.6°F 100% 29.67 in 10.0 miles Calm Calm - 0.01 in Rain Light Rain
10:12 PM 35.6°F 35.6°F 100% 29.66 in 10.0 miles NW 3.5 mph - 0.01 in Rain Light Rain
10:41 PM 35.6°F 35.6°F 100% 29.66 in 10.0 miles NNW 3.5 mph - 0.01 in Rain Light Rain
10:53 PM 35.1°F 35.1°F 100% 29.66 in 10.0 miles North 4.6 mph - 0.02 in Rain Light Rain
11:37 PM 35.6°F 35.6°F 100% 29.63 in 10.0 miles North 6.9 mph - 0.00 in   Overcast
11:53 PM 36.0°F 35.1°F 97% 29.64 in 10.0 miles NNE 4.6 mph - 0.00 in Rain Light Rain
Moon Phase
Dec. 21 Dec. 28 Jan. 04 Jan. 11 Jan. 18
Sunrise:07:56 AM (PST) Moon Rise:12:30 PM (PST)12/21
Sunset:04:25 PM (PST) Moon Set:01:32 AM (PST)12/21

Copyright © 2014 The Weather Underground, Inc.